Regional Weather Roundup
Issued by NWS Green Bay, WI

Home | Current Version | Previous Version | Graphics & Text | Print | Product List | Glossary Off
Versions: 1 2 3 4 5 6 7 8 9 10 11 12 13 14 15 16 17 18 19 20 21 22 23 24 25 26 27 28 29 30 31 32 33 34 35 36 37 38 39 40 41 42 43 44 45 46 47 48 49 50

000
ASUS43 KGRB 231759
RWRGRB

NORTH-CENTRAL AND NORTHEAST WISCONSIN REGIONAL WEATHER ROUNDUP
NATIONAL WEATHER SERVICE GREEN BAY WI
100 PM CDT WED JUL 23 2014

WIZ005-009-010>012-018-019-231900-
NORTH CENTRAL WISCONSIN

CITY           SKY/WX    TMP DP  RH WIND       PRES   REMARKS
IRONWOOD       NOT AVBL
MANITOWISH WTR NOT AVBL
ARBOR VITAE    NOT AVBL
EAGLE RIVER    NOT AVBL
LAND O LAKES   NOT AVBL
RHINELANDER    CLOUDY    67  51  56 VRB5      30.25S
PHILLIPS       MOSUNNY   72  54  54 N8        30.22F
ANTIGO         NOT AVBL
TOMAHAWK       NOT AVBL
MERRILL        NOT AVBL
$$

WIZ013-073-231900-
NORTHEAST WISCONSIN

CITY           SKY/WX    TMP DP  RH WIND       PRES   REMARKS
IRON MOUNTAIN  MOSUNNY   70  46  42 N8G16     30.22S
MARINETTE      MOSUNNY   70  48  46 E8        30.20R
$$

WIZ017-030-035>037-045-231900-
CENTRAL WISCONSIN

CITY           SKY/WX    TMP DP  RH WIND       PRES   REMARKS
MEDFORD        NOT AVBL
WAUSAU         MOSUNNY   74  54  49 N8        30.20F
MOSINEE        PTSUNNY   72  54  53 N12       30.23S
MARSHFIELD     MOSUNNY   75  55  49 VRB7      30.21F
WISC RAPIDS    MOSUNNY   77  53  43 N15       30.22F
STEVENS POINT  NOT AVBL
WAUPACA        PTSUNNY   77  49  37 NE8       30.20F
SHAWANO        PTSUNNY   73  49  41 N13       30.20S
CLINTONVILLE   CLOUDY    73  48  40 N8        30.20S
$$

WIZ038-039-048-051-231900-
FOX VALLEY

CITY           SKY/WX    TMP DP  RH WIND       PRES   REMARKS
NWS GREEN BAY  MOSUNNY   74  53  48 NE12      30.19F
APPLETON       PTSUNNY   72  50  46 N14G22    30.20F
OSHKOSH        MOSUNNY   75  51  43 N16       30.18F
FOND DU LAC    SUNNY     74  51  44 NE14      30.20F
$$

WIZ022-050-052-231900-
EAST CENTRAL WISCONSIN

CITY           SKY/WX    TMP DP  RH WIND       PRES   REMARKS
STURGEON BAY   SUNNY     68  48  49 N13       30.21S
MANITOWOC      NOT AVBL
SHEBOYGAN      SUNNY     66  54  65 NE15      30.19S
$$

LMZ563-521-522-541>543-231900-
LAKESHORE

STATION/POSITION TIME  TEMP    WIND        PRES    VSBY  WAVE
                       AIR SEA DIR/SP/G                  HT/PER
                 (UTC) (F)     (DEG/KT/KT) (MB)    (MI)  (FT/S)
SHEBOYGAN LKSHOR 1700   56      20/  7/  8 1022.8R
KEWAUNEE LKSHORE 1700   58      30/  4/  6 1023.5R
NORTHPORT PIER   1700   63     340/ 15/ 18 1022.7R
N MID LAKE BUOY  1700   55 53  360/  6/  6 1021.7F         2/ 4
CHAMBERS ISLAND  1700   63      20/ 13/ 16 1022.7R
MENOMINEE LKSHOR 1700   63      50/ 15/ 16 1023.3R
$$



USA.gov is the U.S. government's official web portal to all federal, state and local government web resources and services.